User: anonymous   Login
Location: Unspecified
(0.0000°N, 0.0000°E)
Time: 20:09:11
(UTC+01:00)
Language:

ARIANE 5 R/B - Orbit

View from above orbital plane
View from above orbital plane
View from above satellite
View from above satellite

Ground track
Ground track

The orbit data is extracted from the following two-line orbital elements,

1 27510U 02040C   15083.70142021  .00000014  00000-0  94716-3 0  9990
2 27510 004.7250 166.0720 7163901 070.4044 016.3039 02.27183389104362
Epoch (UTC): 24 March 2015 16:50:02
Eccentricity: 0.7163901
inclination: 4.7250°
perigee height: 554 km
apogee height: 35575 km
right ascension of ascending node: 166.0720°
argument of perigee: 70.4044°
revolutions per day: 2.27183389
mean anomaly at epoch: 16.3039°
orbit number at epoch: 10436

The dashed part of the orbit path shows where the satellite is in the earth's shadow,  

DLR